CAPE
1523 1532 1566 1025 882 413 470 375 307 578 432 579 900 493 355 237 544 633 391 167 142 149 305 852 1108 1048 1068 1236 641 1131 978 876 1106 1329 1321 1189 1380 1460 1462 1438 1477 1508 1506
1529 1400 1189 1054 920 757 703 209 141 275 523 758 1175 1006 993 793 778 697 415 196 134 96 184 445 778 994 1066 1104 1231 1224 1097 1046 1092 1098 1152 1153 1299 1422 1368 1454 1431 1367 1353
1588 1499 1318 1144 1054 880 845 422 340 787 958 1164 1023 919 839 961 815 821 714 480 142 340 264 284 429 728 896 996 1056 1027 1218 1150 1092 1165 1271 1275 1097 1088 1077 1022 1409 1307 1343
1589 1524 1610 1376 1019 1020 808 713 720 810 1184 1002 786 942 1056 964 795 710 691 818 551 331 576 354 255 374 652 883 944 956 990 1024 949 943 960 1052 1249 1288 1165 1131 1054 1148 1028
1732 1580 1695 1559 1773 1233 925 759 742 903 1015 649 536 565 568 1260 1239 1017 1190 962 729 462 624 703 510 424 434 673 916 861 876 981 1214 1108 1146 995 1243 1120 856 743 933 1187 1182
1353 1204 1031 2127 1501 1358 959 882 1015 925 815 956 725 836 1037 1324 1242 1256 1217 910 904 853 972 1132 1057 788 695 659 800 930 915 899 903 873 1138 1201 1111 1119 1104 1112 649 735 1020
1725 1415 1671 1938 1481 1497 1093 1065 939 1084 841 1045 905 1115 1114 1315 1244 1191 1341 927 970 782 1319 1111 1059 877 700 596 619 771 789 743 707 784 915 1378 1563 994 510 472 385 105 74
1728 1973 2305 1961 1627 1568 1555 1255 1132 940 974 1123 1162 1040 1090 1297 1465 1504 1444 1237 478 1172 1314 1144 896 1073 870 969 827 564 926 962 762 707 1091 1448 1434 1192 917 465 423 433 459
1838 2535 2521 2105 1898 1821 1704 1710 1586 1459 1240 1319 1020 723 1015 924 1171 1300 1391 1021 1040 1261 1392 1310 1201 1195 1136 886 688 546 710 671 592 658 751 782 791 739 902 770 557 465 452
2064 2460 2684 2061 1912 1847 1931 1791 1644 1479 1702 1444 1324 1146 955 1162 1053 887 1285 1189 968 1082 1176 1359 1240 1230 1179 1139 658 523 629 639 462 437 515 486 483 415 384 387 412 364 384
2359 2583 2807 2434 2134 1758 1987 2211 2111 1914 1647 1412 1429 1730 1818 1524 1242 1006 1258 1535 1385 1451 1325 1428 1241 1166 1163 997 875 660 615 545 569 649 515 415 326 295 219 152 90 62 65
2351 2756 2766 2675 2169 1742 2062 2045 2185 2025 2102 2074 1818 1353 1527 1714 1453 1091 955 1385 1384 1625 1516 1426 1213 1362 904 904 663 654 558 416 389 221 70 9 0 0 0 0 0 0 0
2090 2452 2894 2771 2253 2045 2002 1983 2335 2247 2191 1813 1810 1139 701 648 1023 1009 888 934 723 1047 1195 1061 1158 964 1069 1161 618 708 401 211 42 0 0 0 0 0 0 0 0 0 0
2052 2228 2612 2719 2514 2130 1865 2088 1806 1719 1648 1538 1651 1376 966 492 191 340 458 460 382 485 772 741 444 595 668 788 629 492 180 4 0 0 0 0 0 0 0 0 0 0 0
2100 2503 2552 2785 2577 2187 1973 2184 1680 1804 1698 1624 1340 989 825 672 299 21 12 161 146 62 97 446 739 127 149 222 445 289 18 2 4 6 0 0 0 0 0 0 0 0 0
2553 2731 2771 2721 2729 2501 2212 2039 1838 1975 1804 1593 1145 1247 911 307 46 5 1 17 213 131 39 57 288 115 58 138 188 144 45 20 15 0 0 0 0 0 0 0 0 0 0
2592 2757 3076 2741 2968 2796 2687 2377 2179 2143 2110 1946 1516 1370 1152 577 91 20 0 6 17 33 8 102 71 6 44 98 126 59 27 46 34 4 0 0 0 0 0 0 0 0 0
2436 2771 2779 2859 2928 2776 2858 2855 2474 2151 2308 2151 1898 1367 1112 516 618 421 49 23 1 31 46 0 0 1 95 75 102 10 45 50 5 0 0 0 0 0 0 0 0 0 0
2249 2192 2435 2660 2781 2651 2808 2987 2909 3087 2706 2401 2250 1773 1439 1054 1011 487 174 65 38 10 38 24 0 0 1 50 20 59 28 4 0 0 0 0 0 0 0 0 0 0 0
2663 2715 2687 2722 2720 2656 2633 2777 2971 2901 3099 2727 2668 2210 1773 1398 1259 1118 551 149 54 45 64 52 0 0 0 8 2 8 0 0 0 0 0 0 0 0 0 0 0 0 0
2902 3005 2926 2871 2771 2755 2583 2725 2965 3062 3242 3166 2780 2668 2147 1649 1427 1214 675 331 121 91 86 30 16 0 16 24 42 8 1 0 0 0 0 0 0 0 10 0 0 12 0
2265 2519 2443 2492 2190 2075 1854 1807 1930 2876 3223 3285 3261 2804 2515 1646 1621 1142 526 279 107 154 105 60 21 11 110 132 69 26 0 0 0 0 0 0 0 0 0 11 0 0 0
1463 2214 1962 1851 1740 1676 1401 1293 1171 1703 3044 3218 3373 3236 2522 1832 1161 973 567 233 133 212 69 38 22 46 215 159 88 33 9 0 0 0 0 0 0 0 0 2 0 0 0
1361 1756 1993 1255 433 484 645 394 420 837 1809 2916 3267 3112 2722 1985 1143 832 549 298 237 198 98 71 20 57 243 209 134 129 71 3 0 0 0 0 0 0 8 18 0 0 1
744 917 1230 1250 1001 752 283 217 171 369 994 1700 2647 2634 1534 1481 1050 769 388 186 149 188 132 87 52 66 4 0 23 0 0 0 0 0 0 0 0 2 17 35 30 2 6
364 241 245 341 333 351 91 63 119 375 791 1241 921 832 714 681 683 576 331 220 302 127 145 82 121 39 17 1 0 0 0 0 0 0 0 0 0 0 0 2 38 58 48
CIN
-17 -14 -23 -15 -11 -9 -1 -5 -11 -6 -12 -2 -5 -12 -15 -25 -13 -1 -24 -15 -12 -16 -10 0 0 0 0 0 -2 0 0 0 0 0 0 0 0 0 -3 -4 0 0 0
-19 -16 -27 -15 -9 -7 -1 -12 -25 -27 -8 -3 0 -1 -5 -6 -9 -6 -9 -17 -23 -19 -15 -6 0 0 0 0 0 0 0 0 -4 0 0 -1 0 -2 0 -2 -1 0 -1
-26 -28 -26 -20 -13 -7 0 -1 -5 0 -1 -10 -3 -1 -1 -2 -2 -3 0 -1 -23 -4 -3 -1 -1 -1 0 0 0 0 0 0 -1 -1 0 0 -2 -1 0 -1 0 0 0
-42 -35 -28 -30 -24 -2 0 0 -1 -1 -2 0 0 -1 0 -3 -3 -5 -2 0 -3 -1 -3 -2 -10 -5 -3 0 0 0 -3 0 0 0 -5 -5 -2 -3 -2 -1 0 0 -1
-39 -44 -20 -11 0 0 0 0 0 0 0 -2 -3 -8 -15 0 -1 -1 0 -2 -9 -15 0 -2 -1 -2 -1 0 0 0 -2 -1 0 0 0 -2 -1 -4 -5 -6 -7 0 0
-52 -57 -35 -9 -15 0 0 0 0 0 0 0 -6 -8 -5 0 -2 0 0 -3 -4 -4 0 0 0 -2 0 0 0 0 0 -1 -1 0 0 0 -1 -2 -1 -1 -5 -1 -1
-43 -49 -20 -9 -12 0 0 0 0 0 -3 -6 -5 0 -1 -2 -3 -4 0 -8 -4 -6 0 0 0 -1 0 -3 -2 -1 0 0 -5 -2 -1 0 0 -5 -17 -16 -14 -46 -44
-49 -30 -15 -9 -12 -2 -1 -2 -6 -15 -9 -7 0 -2 0 0 -1 0 0 -1 -43 -1 0 0 0 0 0 0 0 -2 0 0 0 0 0 0 0 -1 -4 -10 -8 -7 -9
-46 -22 -17 -10 -8 -3 0 -3 -1 -3 -1 -2 -15 -17 -1 0 0 -4 -3 -16 -12 0 0 0 0 0 0 0 0 0 -1 -5 -4 -1 0 -6 -6 -7 -2 -4 -7 -6 -7
-36 -22 -15 -16 -8 -1 -2 -1 -4 -3 -1 0 -3 -16 -28 -18 -4 -3 -13 -11 -25 -9 0 0 -1 0 0 0 -1 -9 -7 -4 -4 -4 -2 -9 -15 -18 -10 -5 -2 -3 -2
-36 -21 -14 -13 -6 -4 -4 0 0 -4 -5 -1 0 -2 -2 -16 -46 -14 -2 -4 -10 -5 -3 0 0 0 0 0 0 -7 -6 -3 -3 0 -4 -12 -11 -9 -15 -8 -3 -1 0
-22 -25 -14 -10 -8 -7 -6 -4 0 -5 0 -1 -2 -14 -3 -3 -24 -48 -30 -9 -5 -7 -13 -10 -14 -26 -32 -3 -4 -7 -2 -4 -5 -22 -42 -77 0 0 0 0 0 0 0
-22 -28 -25 -13 -9 -13 -11 -8 -3 -2 -2 -1 -9 -20 -76 -89 -67 -52 -36 -25 -28 -17 -18 -35 -27 -29 -8 -9 -14 -8 -18 -33 -63 0 0 0 0 0 0 0 0 0 0
-21 -40 -34 -20 -16 -23 -21 -12 -6 -7 -13 -10 -16 -47 -71 -109 -157 -105 -43 -22 -16 -38 -20 -4 -73 -48 -20 -3 -19 -32 -57 -51 0 0 0 0 0 0 0 0 0 0 0
-28 -49 -41 -27 -28 -29 -30 -13 -17 -14 -10 -18 -45 -72 -73 -91 -147 -149 -197 -87 -56 -38 -47 -15 -29 -106 -89 -58 -36 -20 -3 -49 -58 -26 0 0 0 0 0 0 0 0 0
-36 -29 -31 -33 -39 -38 -40 -35 -27 -19 -33 -34 -52 -65 -109 -141 -236 -61 -31 -137 -75 -62 -41 -72 -42 -80 -55 -56 -42 -37 -11 -14 -9 0 0 0 0 0 0 0 0 0 0
-31 -26 -18 -33 -27 -25 -29 -34 -32 -19 -25 -25 -53 -63 -71 -147 -157 -93 0 -161 -95 -35 -19 -80 -97 -86 -59 -46 -33 -31 -5 0 0 0 0 0 0 0 0 0 0 0 0
-43 -41 -30 -24 -23 -25 -23 -22 -35 -37 -31 -29 -41 -72 -81 -129 -127 -139 -149 -30 -137 -61 -12 0 0 0 -28 -28 -9 -5 -4 0 -2 0 0 0 0 0 0 0 0 0 0
-66 -56 -52 -46 -36 -27 -19 -18 -31 -22 -26 -30 -32 -45 -56 -91 -92 -100 -216 -35 -46 -102 -37 -15 0 0 0 -23 -2 -6 -3 -4 0 0 0 0 0 0 0 0 0 0 0
-53 -36 -36 -38 -37 -33 -34 -25 -12 -29 -14 -28 -21 -31 -43 -45 -61 -48 -107 -59 -77 -26 -28 -29 0 0 0 0 0 0 0 0 0 0 0 0 0 0 0 0 0 0 0
-52 -34 -19 -21 -18 -4 -5 -15 -14 -10 -17 -14 -26 -22 -38 -39 -25 -34 -103 -114 -111 -38 -28 -18 -4 0 -101 -83 -57 -11 0 0 0 0 0 0 0 0 -9 0 0 -173 0
-120 -77 -101 -68 -87 -81 -72 -28 -14 0 -3 -14 -16 -20 -24 -50 -31 -64 -64 -76 -135 -62 -50 -30 -18 -102 -22 -26 -70 -74 0 0 0 0 0 0 0 0 0 -5 0 0 0
-140 -110 -141 -173 -166 -204 -212 -155 -119 -58 -2 0 -2 -11 -29 -54 -60 -51 -41 -53 -118 -37 -50 -33 -9 -41 -1 -20 -50 -95 -124 0 0 0 0 0 0 0 0 -1 0 0 0
-114 -127 -84 -211 -376 -329 -356 -294 -134 -150 -47 -7 0 -3 -1 -18 -30 -39 -91 -66 -76 -30 -25 -14 -11 0 -4 -21 -35 -24 -56 -60 0 0 0 0 0 0 -13 -16 0 0 -1
-208 -155 -122 -161 -229 -272 -341 -155 -137 -202 -115 -48 -4 -2 -45 -29 -58 -60 -35 -33 -53 -20 -12 -3 0 0 -12 0 -31 -20 0 0 0 0 0 0 0 -1 -4 -8 -26 -1 0
-258 -278 -270 -276 -249 -182 -118 -147 -111 -226 -105 -56 -75 -78 -98 -74 -61 -42 -63 -52 -5 -23 -12 -8 0 -7 -22 -2 0 0 0 0 0 0 0 0 0 0 0 -2 -8 -11 -9
Wind_Speed
11 10 13 13 14 9 8 8 6 5 8 10 9 9 9 8 9 8 5 9 6 9 7 9 9 11 12 14 14 13 13 11 10 8 7 8 7 7 6 8 9 10 12
12 11 13 15 14 11 9 8 6 7 7 9 7 8 9 8 8 10 8 4 6 nan 5 3 7 10 14 12 10 13 12 11 10 10 8 7 6 6 5 3 6 7 7
13 14 13 12 12 14 14 14 11 8 7 7 4 3 7 7 9 11 12 9 6 7 0 3 5 8 11 10 11 11 10 9 8 7 9 10 8 7 6 5 5 6 5
12 13 10 7 10 13 14 13 10 9 7 4 3 6 6 9 10 13 11 11 10 7 5 6 4 9 7 9 10 7 9 7 8 9 8 9 8 7 4 3 6 5 5
9 8 5 7 6 5 6 7 7 6 3 3 4 3 5 6 9 9 11 8 8 9 6 5 4 7 9 8 10 8 8 9 11 14 13 5 8 13 8 3 4 4 4
8 5 2 2 2 1 1 3 1 2 3 2 4 5 6 6 7 9 6 6 5 6 6 5 2 0 9 9 9 10 10 6 9 13 15 6 6 12 12 8 7 8 8
4 2 1 3 3 2 4 3 3 5 4 3 4 4 5 5 8 7 5 4 4 2 3 3 2 3 3 8 6 6 9 11 10 10 7 8 8 10 10 10 15 14 nan
2 3 2 4 5 6 7 5 5 4 0 2 2 4 5 7 7 9 9 6 5 4 4 4 3 3 2 2 5 8 10 11 12 10 7 9 9 8 7 8 10 13 11
3 3 4 4 6 7 8 7 6 4 2 3 5 3 5 3 5 7 10 11 11 6 7 5 5 5 4 4 6 7 7 6 5 6 8 7 7 9 11 10 10 10 9
2 2 4 6 7 6 7 9 7 3 1 4 5 5 3 6 9 14 15 14 13 12 10 10 9 7 7 7 9 9 9 10 10 9 9 14 18 18 17 16 15 14 13
2 1 4 5 6 7 7 9 9 4 5 5 5 8 12 16 16 18 21 23 17 15 11 11 10 11 10 9 9 11 10 13 19 23 24 24 24 23 22 21 nan nan nan
4 1 5 5 6 7 8 9 8 5 5 6 7 9 14 18 19 22 23 21 21 21 17 12 10 14 12 11 7 15 20 20 26 29 nan nan nan nan nan nan nan nan nan
6 3 3 7 6 5 7 8 8 6 6 6 10 12 16 16 18 20 24 27 25 27 25 18 15 16 13 14 17 21 25 24 nan nan nan nan nan nan nan nan nan nan nan
8 8 6 4 4 7 8 7 6 6 6 7 11 14 12 16 16 17 22 25 29 28 27 24 23 21 17 16 19 21 22 nan nan nan nan nan nan nan nan nan nan nan nan
11 9 9 7 5 6 8 8 6 7 6 6 8 9 10 13 18 nan nan 33 33 nan nan 27 26 28 25 19 22 23 nan nan nan nan nan nan nan nan nan nan nan nan nan
12 12 10 10 10 9 8 8 6 5 5 5 7 12 13 15 nan nan nan nan 17 22 nan nan 19 23 nan 25 24 25 nan nan nan nan nan nan nan nan nan nan nan nan nan
12 13 11 11 14 12 10 8 6 5 6 6 8 10 12 17 nan nan nan nan nan nan nan 24 nan nan nan nan 27 nan nan nan nan nan nan nan nan nan nan nan nan nan nan
13 14 14 14 15 16 13 12 10 9 11 8 9 11 12 16 19 18 nan nan nan nan nan nan nan nan nan nan 21 nan nan nan nan nan nan nan nan nan nan nan nan nan nan
11 13 16 15 16 16 15 14 13 13 14 14 15 16 16 16 19 20 23 nan nan nan nan nan nan nan nan nan nan nan nan nan nan nan nan nan nan nan nan nan nan nan nan
15 15 17 17 16 17 16 16 15 13 16 15 18 20 21 22 19 23 26 27 nan nan nan nan nan nan nan nan nan nan nan nan nan nan nan nan nan nan nan nan nan nan nan
21 20 20 21 25 23 21 19 20 16 16 18 17 20 23 25 25 26 29 33 31 nan nan nan nan nan nan nan nan nan nan nan nan nan nan nan nan nan nan nan nan nan nan
28 28 28 26 30 33 32 28 23 22 21 18 21 22 24 28 30 33 32 23 33 39 24 nan nan nan 32 28 nan nan nan nan nan nan nan nan nan nan nan nan nan nan nan
34 35 31 31 31 36 42 38 30 24 25 24 20 24 27 32 31 35 37 33 39 40 nan nan nan nan 30 27 nan nan nan nan nan nan nan nan nan nan nan nan nan nan nan
33 33 26 25 22 30 47 46 38 33 29 27 24 23 25 28 31 37 42 37 38 39 nan nan nan nan 25 27 27 28 nan nan nan nan nan nan nan nan nan nan nan nan nan
34 31 30 29 31 34 39 22 40 36 36 29 31 27 31 31 31 35 43 41 40 38 40 nan nan nan nan nan nan nan nan nan nan nan nan nan nan nan nan nan nan nan nan
37 37 34 36 35 31 nan nan 34 26 29 31 28 26 27 34 35 38 42 41 39 41 42 nan 19 nan nan nan nan nan nan nan nan nan nan nan nan nan nan nan nan nan nan
Wind_Direction
61 52 55 56 44 57 84 88 82 31 55 34 46 24 34 54 67 46 68 69 85 111 80 52 44 24 33 25 26 26 25 19 10 359 347 341 344 338 348 351 358 358 1
68 64 62 62 62 85 72 80 76 87 89 72 45 31 45 46 56 61 62 74 54 nan 177 202 79 30 20 23 27 26 26 25 22 18 360 346 328 313 314 314 324 342 355
66 66 64 62 71 85 82 83 82 99 96 79 42 88 51 54 54 59 63 80 64 71 334 360 87 51 12 8 18 15 15 14 18 17 4 353 357 346 316 317 316 317 327
73 73 68 73 81 87 90 85 84 90 88 81 69 60 68 68 55 48 75 81 74 66 325 24 81 29 2 8 10 14 342 350 349 349 325 319 336 328 352 357 333 327 314
76 83 86 105 60 76 86 74 87 62 72 355 13 56 88 64 47 47 57 62 67 62 70 357 5 10 15 360 348 340 357 1 7 1 346 312 337 334 321 2 326 288 252
87 104 94 109 243 280 313 102 32 59 13 10 90 71 61 34 37 42 47 36 43 71 75 79 34 52 25 12 9 3 5 358 12 12 34 49 15 18 346 345 326 292 251
104 106 78 276 284 259 295 343 339 337 341 81 51 45 35 20 20 21 8 359 16 53 89 47 49 7 34 43 43 9 3 355 3 12 12 14 9 16 14 343 299 311 nan
96 64 332 309 321 324 323 328 343 314 224 32 34 26 35 17 22 23 13 352 335 290 287 324 334 313 292 269 356 3 356 4 1 4 4 355 352 350 339 340 339 328 337
26 40 320 334 351 1 350 348 351 352 312 19 34 47 20 339 10 360 14 7 351 335 287 288 285 276 279 271 286 315 313 302 344 7 19 14 352 350 329 324 318 321 312
343 53 333 338 354 2 2 355 354 356 320 317 342 350 309 334 339 344 345 347 349 353 336 306 292 284 279 269 277 266 294 327 328 326 310 291 290 305 308 312 312 308 297
252 6 9 345 354 348 354 357 340 308 282 280 296 322 347 4 12 7 350 341 336 342 333 332 319 314 319 305 296 296 320 305 302 298 298 296 289 293 296 291 nan nan nan
222 312 8 343 360 2 350 349 335 288 267 279 317 336 355 359 6 5 2 355 357 341 327 315 315 306 296 311 315 305 303 300 308 311 nan nan nan nan nan nan nan nan nan
223 236 322 334 2 6 348 340 344 330 331 339 338 346 346 1 3 1 8 2 354 341 343 321 303 286 301 300 289 297 312 309 nan nan nan nan nan nan nan nan nan nan nan
234 232 287 313 354 7 359 0 351 16 5 358 349 347 348 346 355 355 353 357 345 333 325 314 294 292 289 300 298 297 294 nan nan nan nan nan nan nan nan nan nan nan nan
235 241 251 270 289 326 346 355 7 13 355 343 338 338 344 349 343 nan nan 339 332 nan nan 311 298 280 275 281 305 304 nan nan nan nan nan nan nan nan nan nan nan nan nan
235 250 266 266 275 283 308 335 353 13 339 339 313 319 331 333 nan nan nan nan 2 340 nan nan 324 289 nan 278 293 301 nan nan nan nan nan nan nan nan nan nan nan nan nan
253 245 253 264 263 268 278 299 324 317 327 316 310 321 329 325 nan nan nan nan nan nan nan 327 nan nan nan nan 294 nan nan nan nan nan nan nan nan nan nan nan nan nan nan
272 266 257 254 250 258 268 287 295 302 305 307 308 311 322 320 330 330 nan nan nan nan nan nan nan nan nan nan 312 nan nan nan nan nan nan nan nan nan nan nan nan nan nan
259 255 251 255 257 260 266 274 283 294 301 301 300 307 317 322 323 319 317 nan nan nan nan nan nan nan nan nan nan nan nan nan nan nan nan nan nan nan nan nan nan nan nan
266 260 261 261 251 245 257 260 261 263 278 287 296 306 310 315 320 312 309 309 nan nan nan nan nan nan nan nan nan nan nan nan nan nan nan nan nan nan nan nan nan nan nan
276 268 263 266 265 254 242 251 265 268 271 282 292 299 303 310 310 301 299 306 307 nan nan nan nan nan nan nan nan nan nan nan nan nan nan nan nan nan nan nan nan nan nan
276 273 270 265 270 268 253 250 251 265 274 279 291 299 303 303 304 303 302 313 317 333 307 nan nan nan 309 306 nan nan nan nan nan nan nan nan nan nan nan nan nan nan nan
262 266 270 272 272 273 276 269 263 258 266 274 278 288 292 296 308 297 311 311 311 316 nan nan nan nan 300 310 nan nan nan nan nan nan nan nan nan nan nan nan nan nan nan
284 279 259 274 266 285 264 267 258 257 264 275 278 284 286 295 305 303 296 301 308 312 nan nan nan nan 295 313 314 305 nan nan nan nan nan nan nan nan nan nan nan nan nan
274 271 267 270 266 264 276 261 262 257 260 263 267 278 293 301 299 297 296 302 308 313 302 nan nan nan nan nan nan nan nan nan nan nan nan nan nan nan nan nan nan nan nan
275 281 275 268 267 269 nan nan 284 273 250 264 275 283 292 293 285 289 293 302 312 310 308 nan 286 nan nan nan nan nan nan nan nan nan nan nan nan nan nan nan nan nan nan